| time (UTC) | temp F | wind direction | speed knots | gust knots | rain 1hr in | rain 24hr in | rain mn in | humidity % | barometer mb |
| 20260502161213 | 60 | 157 | 0.9 | 1.7 | 0.00 | 0.00 | 0.04 | 82 | 1016.3 |
| 20260502160714 | 60 | 135 | 0.9 | 1.7 | 0.00 | 0.00 | 0.04 | 81 | 1016.3 |
| 20260502160212 | 60 | 184 | 3.5 | 5.2 | 0.00 | 0.00 | 0.04 | 82 | 1016.3 |
| 20260502152212 | 61 | 201 | 3.5 | 5.2 | 0.00 | 0.00 | 0.04 | 81 | 1016.9 |
| 20260502151712 | 61 | 199 | 3.5 | 4.3 | 0.00 | 0.00 | 0.04 | 81 | 1016.9 |
| 20260502151212 | 61 | 251 | 5.2 | 7.0 | 0.00 | 0.00 | 0.04 | 81 | 1016.9 |
| 20260502150713 | 61 | 271 | 2.6 | 2.6 | 0.00 | 0.00 | 0.04 | 80 | 1016.6 |
| 20260502150212 | 61 | 121 | 2.6 | 6.1 | 0.00 | 0.00 | 0.04 | 80 | 1016.6 |
| 20260502130713 | 61 | 128 | 6.1 | 9.6 | 0.00 | 0.00 | 0.04 | 82 | 1017.9 |
| 20260502130213 | 60 | 165 | 2.6 | 4.3 | 0.00 | 0.00 | 0.04 | 82 | 1017.9 |
| 20260502123712 | 61 | 172 | 3.5 | 7.0 | 0.00 | 0.00 | 0.04 | 81 | 1018.3 |
| 20260502123213 | 62 | 174 | 4.3 | 9.6 | 0.00 | 0.00 | 0.04 | 80 | 1018.3 |
| 20260502122713 | 61 | 148 | 4.3 | 9.6 | 0.00 | 0.00 | 0.04 | 80 | 1018.6 |
| 20260502122212 | 62 | 165 | 3.5 | 7.0 | 0.00 | 0.00 | 0.04 | 80 | 1018.6 |
| 20260502121713 | 62 | 149 | 3.5 | 7.0 | 0.00 | 0.00 | 0.04 | 80 | 1018.3 |
| 20260502121212 | 62 | 187 | 4.3 | 9.6 | 0.00 | 0.00 | 0.04 | 79 | 1018.3 |
| 20260502120713 | 62 | 193 | 2.6 | 7.8 | 0.00 | 0.00 | 0.04 | 79 | 1018.3 |
| 20260502120213 | 62 | 113 | 0.9 | 5.2 | 0.00 | 0.00 | 0.04 | 80 | 1018.3 |
| 20260502115714 | 62 | 148 | 3.5 | 5.2 | 0.00 | 0.00 | 0.04 | 81 | 1018.6 |
| 20260502115212 | 62 | 278 | 5.2 | 7.0 | 0.00 | 0.00 | 0.04 | 82 | 1018.6 |
| 20260502114712 | 61 | 131 | 2.6 | 4.3 | 0.00 | 0.00 | 0.04 | 81 | 1018.6 |
| 20260502114215 | 61 | 124 | 3.5 | 6.1 | 0.00 | 0.00 | 0.04 | 83 | 1018.6 |
| 20260502113712 | 62 | 222 | 3.5 | 7.8 | 0.00 | 0.00 | 0.04 | 81 | 1018.6 |
| 20260502113212 | 62 | 178 | 2.6 | 6.1 | 0.00 | 0.00 | 0.04 | 81 | 1018.6 |
| 20260502112713 | 63 | 155 | 2.6 | 2.6 | 0.00 | 0.00 | 0.04 | 80 | 1018.6 |
| 20260502112212 | 62 | 222 | 5.2 | 7.0 | 0.00 | 0.00 | 0.04 | 82 | 1018.6 |
| 20260502111712 | 62 | 272 | 2.6 | 6.1 | 0.00 | 0.00 | 0.04 | 82 | 1019.0 |
| 20260502111212 | 63 | 162 | 2.6 | 5.2 | 0.00 | 0.00 | 0.04 | 81 | 1018.6 |
| 20260502110713 | 62 | 198 | 3.5 | 7.0 | 0.00 | 0.00 | 0.04 | 81 | 1019.0 |
| 20260502110213 | 61 | 179 | 0.9 | 4.3 | 0.00 | 0.00 | 0.04 | 85 | 1019.0 |
| 20260502105713 | 61 | 211 | 2.6 | 5.2 | 0.00 | 0.00 | 0.04 | 86 | 1019.3 |
| 20260502105212 | 60 | 133 | 0.9 | 4.3 | 0.00 | 0.00 | 0.04 | 85 | 1019.3 |
| 20260502104713 | 60 | 169 | 0.9 | 4.3 | 0.00 | 0.00 | 0.04 | 84 | 1019.3 |
| 20260502104213 | 60 | 152 | 2.6 | 2.6 | 0.00 | 0.00 | 0.04 | 85 | 1019.3 |
| 20260502103713 | 60 | 206 | 3.5 | 4.3 | 0.00 | 0.00 | 0.04 | 85 | 1019.3 |
| 20260502103212 | 60 | 145 | 0.9 | 6.1 | 0.00 | 0.00 | 0.04 | 86 | 1019.6 |
| 20260502102713 | 60 | 190 | 0.9 | 5.2 | 0.00 | 0.00 | 0.04 | 86 | 1019.6 |
| 20260502102212 | 60 | 204 | 3.5 | 5.2 | 0.00 | 0.00 | 0.04 | 84 | 1019.6 |
| 20260502101712 | 60 | 192 | 1.7 | 2.6 | 0.00 | 0.00 | 0.04 | 83 | 1019.3 |
| 20260502101213 | 60 | 185 | 0.9 | 6.1 | 0.00 | 0.00 | 0.04 | 83 | 1019.3 |
| 20260502100712 | 60 | 186 | 2.6 | 4.3 | 0.00 | 0.00 | 0.04 | 85 | 1019.3 |
| 20260502100214 | 60 | 246 | 2.6 | 4.3 | 0.00 | 0.00 | 0.04 | 85 | 1019.3 |
| 20260502091213 | 59 | 97 | 2.6 | 4.3 | 0.00 | 0.00 | 0.04 | 85 | 1019.6 |
| 20260502090713 | 59 | 153 | 0.9 | 2.6 | 0.00 | 0.00 | 0.04 | 85 | 1019.3 |
| 20260502090212 | 59 | 144 | 0.9 | 4.3 | 0.00 | 0.00 | 0.04 | 85 | 1019.3 |
| 20260502071213 | 56 | 149 | 0.9 | 2.6 | 0.00 | 0.00 | 0.04 | 95 | 1020.3 |
| 20260502070712 | 55 | 152 | 0.0 | 2.6 | 0.07 | 0.00 | 0.04 | 95 | 1020.3 |
| 20260502070214 | 56 | 150 | 0.0 | 0.9 | 0.07 | 0.00 | 0.04 | 95 | 1020.3 |
| 20260502065712 | 56 | 133 | 0.0 | 1.7 | 0.00 | 0.00 | 0.03 | 95 | 1020.0 |
| 20260502065212 | 56 | 131 | 0.0 | 2.6 | 0.00 | 0.00 | 0.03 | 95 | 1020.0 |
| 20260502064712 | 56 | 159 | 0.0 | 0.9 | 0.07 | 0.00 | 0.03 | 95 | 1020.0 |
| 20260502064212 | 57 | 166 | 0.9 | 1.7 | 0.07 | 0.00 | 0.03 | 94 | 1020.0 |
| 20260502063712 | 57 | 111 | 2.6 | 2.6 | 0.05 | 0.00 | 0.02 | 93 | 1020.0 |
| 20260502063213 | 57 | 175 | 0.9 | 4.3 | 0.05 | 0.00 | 0.02 | 92 | 1020.0 |
| 20260502062712 | 57 | 164 | 0.0 | 4.3 | 0.00 | 0.00 | 0.01 | 91 | 1020.0 |
| 20260502062213 | 57 | 132 | 0.9 | 1.7 | 0.00 | 0.00 | 0.01 | 91 | 1020.0 |
| 20260502061713 | 57 | 142 | 0.9 | 4.3 | 0.00 | 0.00 | 0.01 | 91 | 1020.0 |
| 20260502061212 | 56 | 182 | 0.0 | 0.9 | 0.00 | 0.00 | 0.01 | 92 | 1020.0 |
| 20260502060712 | 56 | 100 | 0.9 | 5.2 | 0.00 | 0.00 | 0.01 | 93 | 1020.0 |
| 20260502060212 | 56 | 145 | 0.0 | 0.9 | 0.00 | 0.00 | 0.01 | 94 | 1020.0 |
| 20260502055713 | 56 | 153 | 0.0 | 1.7 | 0.00 | 0.00 | 0.01 | 94 | 1019.6 |
| 20260502055213 | 56 | 117 | 0.9 | 1.7 | 0.00 | 0.00 | 0.01 | 94 | 1020.0 |
| 20260502054712 | 56 | 89 | 2.6 | 7.0 | 0.00 | 0.00 | 0.01 | 94 | 1019.6 |
| 20260502054212 | 56 | 184 | 2.6 | 4.3 | 0.00 | 0.00 | 0.01 | 94 | 1019.3 |
| 20260502053713 | 56 | 132 | 1.7 | 4.3 | 0.00 | 0.00 | 0.01 | 95 | 1019.6 |
| 20260502053213 | 56 | 157 | 0.0 | 0.9 | 0.00 | 0.00 | 0.01 | 95 | 1019.6 |
| 20260502052712 | 56 | 123 | 0.9 | 5.2 | 0.00 | 0.00 | 0.01 | 95 | 1019.6 |
| 20260502052213 | 56 | 129 | 2.6 | 2.6 | 0.00 | 0.00 | 0.01 | 95 | 1019.3 |
| 20260502051713 | 56 | 254 | 2.6 | 4.3 | 0.00 | 0.00 | 0.01 | 96 | 1019.6 |
| 20260502051212 | 56 | 118 | 0.9 | 0.9 | 0.00 | 0.00 | 0.01 | 95 | 1019.6 |
| 20260502050712 | 56 | 159 | 0.9 | 4.3 | 0.00 | 0.00 | 0.01 | 95 | 1019.3 |
| 20260502050213 | 57 | 144 | 1.7 | 4.3 | 0.00 | 0.00 | 0.01 | 95 | 1019.3 |
| 20260502045712 | 57 | 106 | 1.7 | 5.2 | 0.00 | 0.00 | 0.01 | 95 | 1019.3 |
| 20260502045214 | 57 | 125 | 2.6 | 2.6 | 0.00 | 0.00 | 0.01 | 95 | 1019.3 |
| 20260502044712 | 57 | 122 | 2.6 | 2.6 | 0.07 | 0.00 | 0.01 | 95 | 1019.3 |
| 20260502044213 | 57 | 174 | 0.9 | 4.3 | 0.07 | 0.00 | 0.01 | 94 | 1019.3 |
| 20260502043713 | 57 | 154 | 0.9 | 2.6 | 0.00 | 0.00 | 0.00 | 94 | 1019.3 |
| 20260502043212 | 57 | 112 | 0.9 | 2.6 | 0.00 | 0.00 | 0.00 | 94 | 1019.3 |
| 20260502042712 | 57 | 129 | 0.0 | 0.0 | 0.00 | 0.00 | 0.00 | 94 | 1019.3 |
| 20260502042213 | 58 | 108 | 0.9 | 1.7 | 0.00 | 0.00 | 0.00 | 93 | 1019.3 |
| 20260502041713 | 58 | 177 | 0.9 | 1.7 | 0.00 | 0.00 | 0.00 | 93 | 1019.0 |
| 20260502041213 | 58 | 183 | 0.9 | 1.7 | 0.00 | 0.00 | 0.00 | 93 | 1019.3 |
| 20260502040713 | 57 | 156 | 0.0 | 0.9 | 0.00 | 0.00 | 0.00 | 93 | 1019.3 |
| 20260502040212 | 57 | 145 | 0.0 | 0.9 | 0.00 | 0.00 | 0.00 | 93 | 1019.3 |
| 20260502035713 | 58 | 119 | 1.7 | 2.6 | 0.00 | 0.00 | 0.00 | 92 | 1019.3 |
| 20260502035212 | 58 | 132 | 1.7 | 2.6 | 0.00 | 0.00 | 0.00 | 92 | 1019.3 |
| 20260502034713 | 58 | 127 | 1.7 | 1.7 | 0.00 | 0.00 | 0.00 | 91 | 1019.3 |
| 20260502034214 | 58 | 137 | 0.0 | 0.9 | 0.00 | 0.00 | 0.00 | 91 | 1019.3 |
| 20260502033713 | 58 | 134 | 0.0 | 1.7 | 0.00 | 0.00 | 0.00 | 91 | 1019.3 |
| 20260502033213 | 58 | 131 | 2.6 | 4.3 | 0.00 | 0.00 | 0.00 | 90 | 1019.3 |
| 20260502032712 | 58 | 157 | 0.0 | 0.9 | 0.00 | 0.00 | 0.00 | 90 | 1019.6 |
| 20260502032212 | 58 | 146 | 0.0 | 0.9 | 0.00 | 0.00 | 0.00 | 89 | 1019.3 |
| 20260502031713 | 58 | 95 | 1.7 | 2.6 | 0.00 | 0.00 | 0.00 | 89 | 1019.3 |
| 20260502031212 | 58 | 86 | 0.9 | 2.6 | 0.00 | 0.00 | 0.00 | 88 | 1019.6 |
| 20260502030712 | 58 | 167 | 0.9 | 0.9 | 0.00 | 0.00 | 0.00 | 88 | 1019.6 |
| 20260502030212 | 58 | 122 | 0.9 | 0.9 | 0.00 | 0.00 | 0.00 | 88 | 1019.3 |
| 20260502025720 | 58 | 162 | 0.0 | 0.9 | 0.00 | 0.00 | 0.00 | 88 | 1019.6 |
| 20260502025212 | 58 | 102 | 3.5 | 5.2 | 0.00 | 0.00 | 0.00 | 88 | 1019.3 |
| 20260502024712 | 58 | 169 | 0.9 | 2.6 | 0.00 | 0.00 | 0.00 | 88 | 1019.6 |
| 20260502024212 | 58 | 119 | 1.7 | 2.6 | 0.00 | 0.00 | 0.00 | 88 | 1019.6 |
| 20260502023712 | 58 | 120 | 0.0 | 4.3 | 0.00 | 0.00 | 0.00 | 87 | 1019.6 |
| 20260502023212 | 58 | 136 | 1.7 | 1.7 | 0.00 | 0.00 | 0.00 | 87 | 1019.6 |
| 20260502022712 | 58 | 159 | 0.0 | 0.9 | 0.00 | 0.00 | 0.00 | 87 | 1019.6 |
| 20260502022213 | 58 | 130 | 0.9 | 1.7 | 0.00 | 0.00 | 0.00 | 88 | 1019.6 |
| 20260502021713 | 58 | 136 | 1.7 | 7.0 | 0.00 | 0.00 | 0.00 | 88 | 1019.6 |
| 20260502021213 | 58 | 96 | 2.6 | 4.3 | 0.00 | 0.00 | 0.00 | 87 | 1019.3 |
| 20260502020713 | 58 | 169 | 1.7 | 2.6 | 0.00 | 0.00 | 0.00 | 88 | 1019.6 |
| 20260502020213 | 58 | 141 | 1.7 | 5.2 | 0.00 | 0.00 | 0.00 | 88 | 1019.6 |
| 20260502015712 | 58 | 117 | 0.9 | 1.7 | 0.00 | 0.00 | 0.00 | 88 | 1019.6 |
| 20260502015214 | 58 | 207 | 4.3 | 7.0 | 0.00 | 0.00 | 0.00 | 88 | 1019.6 |
| 20260502014712 | 58 | 235 | 1.7 | 2.6 | 0.00 | 0.00 | 0.00 | 89 | 1019.6 |
| 20260502014215 | 58 | 135 | 1.7 | 1.7 | 0.00 | 0.00 | 0.00 | 89 | 1019.6 |
| 20260502013712 | 58 | 152 | 0.0 | 1.7 | 0.00 | 0.00 | 0.00 | 89 | 1020.0 |
| 20260502013212 | 58 | 139 | 0.0 | 2.6 | 0.00 | 0.00 | 0.00 | 89 | 1019.6 |
| 20260502012712 | 58 | 167 | 0.9 | 5.2 | 0.00 | 0.00 | 0.00 | 89 | 1019.6 |
| 20260502012212 | 58 | 156 | 0.0 | 0.0 | 0.00 | 0.00 | 0.00 | 89 | 1019.6 |
| 20260502011713 | 58 | 117 | 0.9 | 6.1 | 0.00 | 0.00 | 0.00 | 89 | 1020.0 |
| 20260502011212 | 58 | 141 | 0.0 | 0.9 | 0.00 | 0.00 | 0.00 | 90 | 1020.0 |
| 20260502010712 | 58 | 118 | 3.5 | 4.3 | 0.00 | 0.00 | 0.00 | 90 | 1020.0 |
| 20260502010213 | 58 | 140 | 0.9 | 1.7 | 0.00 | 0.00 | 0.00 | 89 | 1020.0 |
| 20260502005713 | 58 | 155 | 2.6 | 2.6 | 0.00 | 0.00 | 0.00 | 89 | 1020.0 |
| 20260502005213 | 58 | 124 | 0.9 | 1.7 | 0.00 | 0.00 | 0.00 | 88 | 1020.0 |
| 20260502004712 | 58 | 157 | 0.0 | 0.9 | 0.00 | 0.00 | 0.00 | 89 | 1020.3 |
| 20260502004213 | 58 | 104 | 0.9 | 1.7 | 0.00 | 0.00 | 0.00 | 89 | 1020.0 |
| 20260502003712 | 58 | 192 | 0.9 | 2.6 | 0.00 | 0.00 | 0.00 | 89 | 1020.0 |
| 20260502003212 | 58 | 186 | 0.9 | 2.6 | 0.00 | 0.00 | 0.00 | 90 | 1020.3 |
| 20260502002713 | 58 | 135 | 2.6 | 5.2 | 0.00 | 0.00 | 0.00 | 91 | 1020.7 |